• Em Portugal
  • Lista de países
  • Para 7 dias
  • Temperatura da água
  • Mapas de satélite
  • Mapa do tempo
  • Widgets de tempo
  • user-avatar
    Iniciar Sessão

    Previsão horária em Garani

    Hoje, 21 Julho, Sábado

    Tempo Temperatura Precipitação Vento Pressão Humidade
    00:00 +18°C° 0 mm 2 m/s 740 mmHg 92%
    01:00 +18°C° 0 mm 2 m/s 740 mmHg 93%
    02:00 +18°C° 0 mm 2 m/s 740 mmHg 94%
    03:00 +18°C° 0 mm 2 m/s 740 mmHg 95%
    04:00 +18°C° 0 mm 2 m/s 740 mmHg 95%
    05:00 +18°C° 0 mm 2 m/s 740 mmHg 96%
    06:00 +19°C° 0 mm 2 m/s 740 mmHg 92%
    07:00 +20°C° 0 mm 2 m/s 741 mmHg 88%
    08:00 +23°C° 0 mm 2 m/s 741 mmHg 85%
    09:00 +24°C° 0 mm 3 m/s 741 mmHg 79%
    10:00 +25°C° 0 mm 3 m/s 741 mmHg 73%
    11:00 +26°C° 0 mm 3 m/s 741 mmHg 66%
    12:00 +27°C° 0,1 mm 3 m/s 741 mmHg 64%
    13:00 +27°C° 0,1 mm 3 m/s 741 mmHg 62%
    14:00 +28°C° 0,1 mm 3 m/s 741 mmHg 60%
    15:00 +28°C° 0,1 mm 3 m/s 741 mmHg 62%
    16:00 +28°C° 0,1 mm 3 m/s 741 mmHg 64%
    17:00 +27°C° 0,1 mm 3 m/s 741 mmHg 66%
    18:00 +26°C° 0 mm 3 m/s 741 mmHg 72%
    19:00 +24°C° 0 mm 3 m/s 741 mmHg 77%
    20:00 +23°C° 0 mm 2 m/s 741 mmHg 83%
    21:00 +21°C° 0 mm 2 m/s 741 mmHg 85%
    22:00 +20°C° 0 mm 2 m/s 741 mmHg 87%
    23:00 +19°C° 0 mm 2 m/s 741 mmHg 89%

    Amanhã, 22 Julho, Domingo

    Tempo Temperatura Precipitação Vento Pressão Humidade
    00:00 +19°C° 0 mm 2 m/s 741 mmHg 90%
    01:00 +19°C° 0 mm 2 m/s 741 mmHg 91%
    02:00 +18°C° 0 mm 2 m/s 741 mmHg 91%
    03:00 +18°C° 0 mm 2 m/s 741 mmHg 91%
    04:00 +18°C° 0 mm 2 m/s 742 mmHg 91%
    05:00 +18°C° 0 mm 2 m/s 742 mmHg 90%
    06:00 +19°C° 0 mm 2 m/s 742 mmHg 88%
    07:00 +19°C° 0 mm 3 m/s 742 mmHg 86%
    08:00 +20°C° 0 mm 3 m/s 742 mmHg 84%
    09:00 +21°C° 0 mm 3 m/s 742 mmHg 81%
    10:00 +22°C° 0 mm 3 m/s 742 mmHg 77%
    11:00 +24°C° 0 mm 3 m/s 742 mmHg 74%
    12:00 +25°C° 0,1 mm 4 m/s 742 mmHg 71%
    13:00 +26°C° 0,1 mm 4 m/s 741 mmHg 69%
    14:00 +27°C° 0,1 mm 4 m/s 741 mmHg 66%
    15:00 +26°C° 0,5 mm 4 m/s 741 mmHg 70%
    16:00 +26°C° 0,5 mm 4 m/s 741 mmHg 75%
    17:00 +25°C° 0,5 mm 4 m/s 741 mmHg 79%
    18:00 +24°C° 0,4 mm 3 m/s 741 mmHg 83%
    19:00 +22°C° 0,4 mm 3 m/s 741 mmHg 87%
    20:00 +21°C° 0,4 mm 3 m/s 741 mmHg 90%
    21:00 +20°C° 0,2 mm 3 m/s 741 mmHg 92%
    22:00 +20°C° 0,2 mm 3 m/s 741 mmHg 93%
    23:00 +19°C° 0,2 mm 3 m/s 741 mmHg 94%

    Depois de amanhã, 23 Julho, Segunda-feira

    Tempo Temperatura Precipitação Vento Pressão Humidade
    00:00 +19°C° 0,5 mm 3 m/s 741 mmHg 95%
    01:00 +19°C° 0,5 mm 3 m/s 741 mmHg 96%
    02:00 +19°C° 0,5 mm 3 m/s 741 mmHg 96%
    03:00 +19°C° 0,7 mm 3 m/s 741 mmHg 97%
    04:00 +19°C° 0,7 mm 3 m/s 741 mmHg 97%
    05:00 +19°C° 0,7 mm 3 m/s 741 mmHg 97%
    06:00 +20°C° 0,5 mm 3 m/s 741 mmHg 96%
    07:00 +20°C° 0,5 mm 3 m/s 742 mmHg 95%
    08:00 +21°C° 0,5 mm 3 m/s 742 mmHg 93%
    09:00 +21°C° 0,4 mm 3 m/s 742 mmHg 90%
    10:00 +22°C° 0,4 mm 3 m/s 742 mmHg 87%
    11:00 +24°C° 0,4 mm 2 m/s 742 mmHg 84%
    12:00 +24°C° 0,8 mm 3 m/s 742 mmHg 81%
    13:00 +25°C° 0,8 mm 3 m/s 742 mmHg 79%
    14:00 +25°C° 0,8 mm 3 m/s 742 mmHg 77%
    15:00 +25°C° 0,9 mm 2 m/s 742 mmHg 77%
    16:00 +25°C° 0,9 mm 2 m/s 742 mmHg 77%
    17:00 +25°C° 0,9 mm 2 m/s 741 mmHg 78%
    18:00 +24°C° 0,6 mm 2 m/s 742 mmHg 82%
    19:00 +23°C° 0,6 mm 2 m/s 742 mmHg 86%
    20:00 +21°C° 0,6 mm 2 m/s 742 mmHg 90%
    21:00 +20°C° 0,1 mm 2 m/s 742 mmHg 91%
    22:00 +21°C° 0,1 mm 1 m/s 742 mmHg 92%
    23:00 +20°C° 0,1 mm 1 m/s 742 mmHg 94%

    24 Julho, Terça-feira

    Tempo Temperatura Precipitação Vento Pressão Humidade
    00:00 +20°C° 0 mm 1 m/s 742 mmHg 95%
    01:00 +19°C° 0 mm 1 m/s 742 mmHg 95%
    02:00 +19°C° 0 mm 1 m/s 742 mmHg 96%
    03:00 +19°C° 0 mm 1 m/s 742 mmHg 97%
    04:00 +19°C° 0 mm 1 m/s 742 mmHg 97%
    05:00 +19°C° 0 mm 1 m/s 742 mmHg 97%
    06:00 +20°C° 0,1 mm 1 m/s 742 mmHg 94%
    07:00 +21°C° 0,1 mm 1 m/s 743 mmHg 92%
    08:00 +22°C° 0,1 mm 1 m/s 743 mmHg 89%
    09:00 +23°C° 0,3 mm 2 m/s 743 mmHg 85%
    10:00 +23°C° 0,3 mm 2 m/s 743 mmHg 82%
    11:00 +24°C° 0,3 mm 2 m/s 743 mmHg 79%
    12:00 +25°C° 0,5 mm 2 m/s 743 mmHg 77%
    13:00 +25°C° 0,5 mm 1 m/s 743 mmHg 75%
    14:00 +26°C° 0,5 mm 1 m/s 743 mmHg 73%
    15:00 +26°C° 0,4 mm 2 m/s 743 mmHg 75%
    16:00 +26°C° 0,4 mm 2 m/s 743 mmHg 76%
    17:00 +25°C° 0,4 mm 3 m/s 743 mmHg 78%
    18:00 +24°C° 0,2 mm 2 m/s 743 mmHg 82%
    19:00 +23°C° 0,2 mm 2 m/s 743 mmHg 87%
    20:00 +21°C° 0,2 mm 2 m/s 743 mmHg 92%
    21:00 +21°C° 0 mm 1 m/s 743 mmHg 93%
    22:00 +20°C° 0 mm 1 m/s 743 mmHg 94%
    23:00 +20°C° 0 mm 1 m/s 743 mmHg 95%

    25 Julho, Quarta-feira

    Tempo Temperatura Precipitação Vento Pressão Humidade
    00:00 +19°C° 0 mm 1 m/s 743 mmHg 95%
    01:00 +19°C° 0 mm 1 m/s 743 mmHg 96%
    02:00 +19°C° 0 mm 1 m/s 743 mmHg 96%
    03:00 +19°C° 0 mm 1 m/s 744 mmHg 97%
    04:00 +19°C° 0 mm 1 m/s 744 mmHg 97%
    05:00 +18°C° 0 mm 1 m/s 744 mmHg 97%
    06:00 +20°C° 0 mm 1 m/s 744 mmHg 94%
    07:00 +21°C° 0 mm 1 m/s 744 mmHg 90%
    08:00 +23°C° 0 mm 2 m/s 745 mmHg 87%
    09:00 +24°C° 0,1 mm 2 m/s 745 mmHg 82%
    10:00 +25°C° 0,1 mm 2 m/s 745 mmHg 77%
    11:00 +26°C° 0,1 mm 2 m/s 745 mmHg 72%
    12:00 +27°C° 0,3 mm 2 m/s 745 mmHg 71%
    13:00 +27°C° 0,3 mm 3 m/s 745 mmHg 70%
    14:00 +28°C° 0,3 mm 3 m/s 744 mmHg 69%
    15:00 +27°C° 0,7 mm 3 m/s 744 mmHg 73%
    16:00 +27°C° 0,7 mm 3 m/s 744 mmHg 76%
    17:00 +26°C° 0,7 mm 3 m/s 744 mmHg 80%
    18:00 +25°C° 0,3 mm 2 m/s 745 mmHg 85%
    19:00 +24°C° 0,3 mm 2 m/s 745 mmHg 89%
    20:00 +23°C° 0,3 mm 2 m/s 745 mmHg 93%
    21:00 +21°C° 0 mm 2 m/s 745 mmHg 94%
    22:00 +20°C° 0 mm 2 m/s 745 mmHg 96%
    23:00 +20°C° 0 mm 2 m/s 745 mmHg 97%

    26 Julho, Quinta-feira

    Tempo Temperatura Precipitação Vento Pressão Humidade
    00:00 +19°C° 0 mm 2 m/s 745 mmHg 97%
    01:00 +19°C° 0 mm 2 m/s 745 mmHg 97%
    02:00 +18°C° 0 mm 2 m/s 745 mmHg 98%
    03:00 +18°C° 0 mm 2 m/s 745 mmHg 98%
    04:00 +18°C° 0 mm 2 m/s 745 mmHg 98%
    05:00 +18°C° 0 mm 2 m/s 746 mmHg 98%
    06:00 +19°C° 0 mm 2 m/s 746 mmHg 95%
    07:00 +20°C° 0 mm 2 m/s 746 mmHg 92%
    08:00 +21°C° 0 mm 2 m/s 746 mmHg 90%
    09:00 +23°C° 0,2 mm 2 m/s 746 mmHg 88%
    10:00 +23°C° 0,2 mm 2 m/s 746 mmHg 86%
    11:00 +24°C° 0,2 mm 2 m/s 746 mmHg 84%
    12:00 +24°C° 0,8 mm 2 m/s 746 mmHg 84%
    13:00 +25°C° 0,8 mm 2 m/s 746 mmHg 83%
    14:00 +25°C° 0,8 mm 3 m/s 746 mmHg 82%
    15:00 +25°C° 0,9 mm 3 m/s 746 mmHg 83%
    16:00 +26°C° 0,9 mm 3 m/s 746 mmHg 83%
    17:00 +26°C° 0,9 mm 3 m/s 746 mmHg 83%
    18:00 +25°C° 0,3 mm 3 m/s 746 mmHg 86%
    19:00 +24°C° 0,3 mm 2 m/s 746 mmHg 90%
    20:00 +23°C° 0,3 mm 2 m/s 746 mmHg 93%
    21:00 +21°C° 0,2 mm 2 m/s 746 mmHg 94%
    22:00 +21°C° 0,2 mm 2 m/s 747 mmHg 95%
    23:00 +20°C° 0,2 mm 2 m/s 747 mmHg 96%
    Mostrar mais